{"data":{"norad_id":53607,"intl_designator":"2022-104V","name":"STARLINK-4591","alt_names":[],"object_type":"PAYLOAD","status":"ACTIVE","operator":null,"country":"US","launch_date":"2022-08-28","launch_site_code":"AFETR","launch_vehicle":null,"mission":null,"orbit_class":"UNKNOWN","rcs_meters":null,"size_class":null,"mass_kg":null,"dimensions":null,"purposes":["comms"],"wikipedia_slug":null,"has_3d_model":false,"image_url":null,"decayed_at":null,"tle_current":{"epoch":"2026-09-20T04:36:24.841152Z","epoch_age_seconds":108300,"freshness":"FRESH","line1":"1 53607U 22104V   26263.19195418  .00001003  00000+0  40843-4 0  9993","line2":"2 53607  53.1610  68.7946 0001296  84.0476 276.0674 15.34387783225286","mean_motion":15.34387783,"eccentricity":0.0001296,"inclination_deg":53.161,"raan_deg":68.7946,"arg_perigee_deg":84.0476,"mean_anomaly_deg":276.0674,"bstar":4.0843e-5,"rev_number":22528,"period_min":93.848505309691,"perigee_km":461.85297434552,"apogee_km":463.62612954778,"semimajor_km":6840.8765519467,"source":"CELESTRAK","updated_at":"2026-09-21T09:00:32.938716Z"}}}